Search flights

Asheville Rgnl Airport, Asheville (KAVL)

Airport Weather & NOTAM's

METAR for:KAVL (Asheville Muni, NC, US)
Text:KAVL 180854Z AUTO 00000KT 10SM CLR 14/10 A3010 RMK AO2 SLP172 T01390100 55003
Conditions at:0854 UTC 18 Apr 2024
Temperature: 13.9°C ( 57°F)
Dewpoint: 10.0°C ( 50°F) [RH = 77%]
Pressure (altimeter):30.10 inches Hg (1019.4 mb) [Sea level pressure: 1017.2 mb]
Winds:calm
Visibility:10 or more sm (16+ km)
Ceiling:at least 12,000 feet AGL
Clouds:sky clear below 12,000 feet AGL
QC Flag:automated observation with no human augmentation
TAF for:KAVL (Asheville Muni, NC, US) issued at 0529 UTC 18 Apr 2024
Text:KAVL 180529Z 1806/1906 VRB03KT P6SM SCT250
Forecast period:0600 to 1200 UTC 18 April 2024
Forecast type:FROM: standard forecast or significant change
Winds:variable direction winds at 3 MPH (3 knots; 1.5 m/s)
Visibility:6 or more sm (10+ km)
Ceiling:at least 12,000 feet AGL
Clouds:scattered clouds at 25000 feet AGL
Text:FM181200 34006KT P6SM SKC
Forecast period:1200 to 2000 UTC 18 April 2024
Forecast type:FROM: standard forecast or significant change
Winds:from the NNW (340 degrees) at 7 MPH (6 knots; 3.1 m/s)
Visibility:6 or more sm (10+ km)
Ceiling:at least 12,000 feet AGL
Clouds:clear skies
Text:FM182000 18005KT P6SM FEW050
Forecast period:2000 UTC 18 April 2024 to 0200 UTC 19 April 2024
Forecast type:FROM: standard forecast or significant change
Winds:from the S (180 degrees) at 6 MPH (5 knots; 2.6 m/s)
Visibility:6 or more sm (10+ km)
Ceiling:at least 12,000 feet AGL
Clouds:few clouds at 5000 feet AGL
Text:FM190200 VRB03KT P6SM SCT250
Forecast period:0200 to 0600 UTC 19 April 2024
Forecast type:FROM: standard forecast or significant change
Winds:variable direction winds at 3 MPH (3 knots; 1.5 m/s)
Visibility:6 or more sm (10+ km)
Ceiling:at least 12,000 feet AGL
Clouds:scattered clouds at 25000 feet AGL

Live Departures & Arrivals

There are currently no arrivals or departures for this airport.

Departures History (last 12 months)

Flight No. Dest. Aircraft Date
AAY6299 KDAL Boeing757-... 2024-04-13 23:30:05
AAY232 KFLL Fenix A320... 2024-04-13 12:46:35
AAY8069 KPOB PA319 - Al... 2024-04-09 18:22:08
AAY218 KBOS Fenix A320... 2024-04-05 00:38:40
AAY1857 KPIE Fenix A320... 2024-04-01 00:37:25
AAY1842 KDEN Fenix A320... 2024-03-31 12:37:50
AAY6299 KMCO FlightFact... 2024-03-25 02:04:18
AAY227 KSFB Fenix A320... 2024-03-22 02:11:26
AAY220 KSFB Fenix A320... 2024-03-21 01:39:04
AAY233 KBOS Fenix A320... 2024-03-16 14:59:25
AAY216 KEWR Fenix A320... 2024-03-10 19:34:47
AAY216 KEWR Fenix A320... 2024-03-06 11:31:24
AAY989 KEYW Airbus A31... 2024-02-25 21:43:36
AAY227 KEWR FenixA320_... 2024-02-16 05:27:19
AAY227 KEWR FenixA320_... 2024-02-15 16:43:20
AAY227 KEWR FenixA320_... 2024-02-10 18:51:52
AAY227 KEWR Airbus A31... 2024-02-06 22:32:55
AAY227 KEWR PMDG 737-8... 2024-02-05 11:46:48
AAY6299 KHVN 737NG Seri... 2024-02-04 14:25:46
AAY227 KEWR FWB Allegi... 2024-02-04 22:14:04
AAY239 KMSP PMDG 737-8... 2024-01-28 14:05:07
AAY269 KLAS FenixA320_... 2024-01-14 23:26:49
AAY218 KLAS FenixA320_... 2024-01-11 15:59:09
AAY6299 KDCA FlightFact... 2024-01-09 00:15:38
AAY217 KPGD Airbus A32... 2024-01-07 16:46:23
AAY259 KSFB FenixA320_... 2024-01-06 13:32:03
AAY228 KFLL FenixA320_... 2024-01-01 21:45:00
AAY221 KSFB FenixA320_... 2023-12-27 21:44:52
AAY228 KFLL Fly The Ma... 2023-12-18 15:00:38
AAY259 KSFB FlightFact... 2023-12-05 21:59:22
AAY491 KFLL FenixA320_... 2023-12-03 18:42:26
AAY247 KPGD Fly The Ma... 2023-12-01 22:37:10
AAY1260 KSFB Airbus A32... 2023-11-24 15:49:41
AAY9422 KMYR Rotate-MD-... 2023-11-23 01:49:14
AAY1260 KSFB Airbus A32... 2023-11-21 15:47:32
AAY1200 KSFB Allegiant_... 2023-11-14 22:59:23
AAY250 KFLL FlightFact... 2023-11-09 14:24:46
AAY217 KBOS FenixA320... 2023-11-01 18:12:10
AAY270 KSFB Airbus A32... 2023-10-31 06:49:17
AAY221 KMDW FWB Allegi... 2023-10-30 23:35:25
AAY218 KEWR FenixA320_... 2023-10-27 18:28:40
AAY227 KEWR Airbus A32... 2023-10-13 01:03:38
AAY6299 KJAX ToLissA319... 2023-10-04 18:02:41
AAY231 KDEN FenixA320_... 2023-09-25 21:56:22
AAY227 KPIE FenixA320_... 2023-09-20 20:00:43
AAY2990 KSRQ Aerosoft A... 2023-09-13 03:33:23
AAY6299 KMSY (CFM 5B) A... 2023-09-04 14:31:33
AAY269 KEYW ToLiss A31... 2023-09-03 18:02:40
AAY877 KGSO FenixA320_... 2023-08-27 00:57:52
AAY1859 KSRQ Airbus A32... 2023-08-25 11:39:23
AAY221 KMDW FenixA320_... 2023-08-18 12:38:48
AAY6299 MDPC FlightFact... 2023-08-12 14:46:07
AAY227 KFLL Airbus A31... 2023-08-07 06:57:28
AAY406 KFLL FenixA320_... 2023-08-05 23:00:06
AAY6299 KJAX Boeing757-... 2023-08-02 17:19:28
AAY217 KFLL FWB Allegi... 2023-08-01 22:58:16
AAY1850 KSFB ToLissA319... 2023-07-31 04:13:22
AAY266 KHOU FWB Allegi... 2023-07-30 22:43:49
AAY227 KFLL FenixA320 2023-07-29 04:30:40
AAY3130 KAUS FWB Allegi... 2023-07-28 15:18:48
AAY244 KFLL FenixA320 2023-07-26 06:07:40
AAY252 KFLL Airbus A32... 2023-07-20 03:59:20
AAY252 KFLL FWB Allegi... 2023-07-20 03:59:24
AAY234 KLAS Fly The Ma... 2023-07-19 19:12:43
AAY247 KPGD FenixA320_... 2023-07-14 15:09:03
AAY6299 KFLL ToLissA319... 2023-07-13 21:40:15
AAY226 KPIE Airbus A31... 2023-06-20 03:07:38
AAY221 KMDW FenixA320_... 2023-06-18 03:34:16
AAY234 KLAS FWB Allegi... 2023-06-11 18:32:19
AAY877 KMDW FWB Allegi... 2023-06-10 01:35:04
AAY738 KMDW FenixA320_... 2023-06-10 23:44:03
AAY406 KMDW FenixA320_... 2023-06-10 23:28:12
AAY300 KMDW FenixA320_... 2023-06-10 23:28:09
AAY1881 KMDW FenixA320_... 2023-06-08 11:06:29
AAY9225 KCVG A20N 2023-06-05 17:09:00
AAY218 KMDW FenixA320_... 2023-06-05 10:59:52
AAY9202F KTYS FenixA320... 2023-05-28 02:07:06
237 KPGD FWB Allegi... 2023-05-24 12:50:24
AAY1222 CYYT A320 2023-05-20 18:32:00
AAY253 KPIE FWB Allegi... 2023-05-14 02:34:47
AAY223 KEWR FenixA320_... 2023-05-12 15:57:14
AAY58 KLAS FWB Allegi... 2023-05-11 19:35:28
AAY1885 KPIE FenixA320_... 2023-05-10 19:23:10
AAY258 KFLL FWB Allegi... 2023-05-09 20:46:40
AAY217 KVPS FWB Allegi... 2023-05-07 23:07:52
AAY258 KFLL FenixA320_... 2023-05-01 21:37:02

Arrivals History (last 12 months)

Flight No. Origin Aircraft Date
AAY6299 KDAL Boeing757-... 2024-04-14 17:42:59
AAY242 KFLL Fenix A320... 2024-04-12 18:49:05
AAY262 KDEN Fenix A320... 2024-03-31 19:32:30
AAY227 KMDW Fenix A320... 2024-03-31 23:17:23
AAY406 KDEN Fenix A320... 2024-03-26 21:33:38
AAY6299 KMCO FlightFact... 2024-03-25 12:46:43
AAY227 KPGD Fenix A320... 2024-03-16 06:01:47
AAY978 KEYW FenixA320_... 2024-02-15 21:00:57
AAY978 KEYW FenixA320_... 2024-02-14 16:21:54
AAY978 KEYW FenixA320_... 2024-02-10 18:40:39
AAY978 KEYW Airbus A31... 2024-02-05 04:46:22
AAY978 KEYW PMDG 737-8... 2024-02-04 13:23:33
AAY978 KEYW FWB Allegi... 2024-02-04 03:09:22
AAY6299 KHVN 737NG Seri... 2024-02-04 22:12:26
AAY978 KEYW FWB Allegi... 2024-02-03 17:50:34
AAY481 KTYS PMDG 737-8... 2024-01-27 23:09:30
AAY963 KPGD Fly The Ma... 2024-01-26 17:22:43
AAY960 KBNA FenixA320_... 2024-01-13 02:15:57
AAY218 KLAS FenixA320_... 2024-01-11 15:22:20
AAY6299 KDAL ToLissA320... 2024-01-10 16:10:21
AAY237 KEWR A319 2024-01-04 09:43:00
AAY228 KSFB FenixA320_... 2023-12-27 21:35:55
AAY247 KPIE ToLissA319... 2023-12-06 17:19:17
AAY270 KPGD FenixA320_... 2023-12-03 18:25:13
AAY1848 KMDW FenixA320_... 2023-11-28 22:40:37
AAY1201 KSFB Allegiant_... 2023-11-14 02:54:38
AAY6299 KMDW FlightFact... 2023-11-12 14:27:35
AAY228 KFLL Airbus A32... 2023-10-30 08:44:00
AAY6299 KJAX ToLissA320... 2023-10-05 00:27:37
AAY1866 KSFB FenixA320_... 2023-09-23 22:15:01
AAY1352 KSRQ Aerosoft A... 2023-09-13 03:27:47
AAY6299 KMSY (CFM 5B) A... 2023-09-04 18:51:43
AAY219 KEYW ToLiss A31... 2023-09-03 17:34:18
AAY231 KPIE FenixA320_... 2023-08-20 07:09:18
AAY262 KPGD FenixA320_... 2023-08-17 03:20:43
AAY248 KSFB Airbus A31... 2023-08-17 12:27:48
AAY268 KPIE FenixA320_... 2023-08-15 13:41:28
AAY248 KFLL FWB Allegi... 2023-08-14 22:49:22
AAY6200 KFLL ToLissA319... 2023-08-13 17:42:47
AAY270 KFLL Airbus A32... 2023-08-07 06:36:34
AAY254 KFLL Airbus A32... 2023-08-06 08:07:34
AAY6299 KJAX Boeing757-... 2023-08-02 20:56:16
AAY233 KFLL Airbus A31... 2023-08-01 21:03:21
AAY1883 KHOU FWB Allegi... 2023-07-31 01:45:51
AAY253 KMDW ToLissA319... 2023-07-30 02:21:12
AAY229 KAUS FWB Allegi... 2023-07-29 00:37:31
AAY254 KFLL FenixA320 2023-07-26 05:19:53
AAY489 KFLL FenixA320_... 2023-07-24 07:23:41
AAY242 KLAS FWB Allegi... 2023-07-23 00:16:28
AAY233 KFLL FWB Allegi... 2023-07-23 08:43:47
AAY233 KFLL Airbus A32... 2023-07-23 08:43:50
AAY233 KFLL FenixA320_... 2023-07-19 00:28:27
AAY1852 KPIE FenixA320_... 2023-07-18 12:26:33
AAY6299 KFLL ToLissA319... 2023-07-14 02:20:21
AAY6299 KDCA ToLissA319... 2023-07-13 15:01:52
AAY248 KSFB Airbus A32... 2023-06-15 15:50:17
AAY266 KPGD FenixA320_... 2023-06-12 19:08:15
AAY229 KMDW FWB Allegi... 2023-06-11 17:01:36
AAY219 KDEN FWB Allegi... 2023-06-07 20:58:51
AAY159 KLAS FWB Allegi... 2023-06-04 22:17:09
AAY482 KFLL FenixA320... 2023-06-03 19:04:38
AAY482 KFLL FenixA320... 2023-05-27 15:35:40
AAY222 KPIE Airbus A31... 2023-05-26 23:34:33
AAY229 KMDW FenixA320_... 2023-05-23 14:32:56
G41848 KMDW FWB Allegi... 2023-05-22 17:02:58
AAY1201 KSFB Fly The Ma... 2023-05-22 14:21:16
AAY2981 KSRQ FWB Allegi... 2023-05-20 14:13:22
AAY219 KDEN FWB Allegi... 2023-05-14 00:09:58
AAY243 KFLL FWB Allegi... 2023-05-09 21:34:23
AAY224 KEWR FenixA320_... 2023-05-09 12:28:51
AAY224 KEWR FWB Allegi... 2023-05-08 01:19:34

Runway Information (Airport elevation: 2,140ft)

Runway 17 Length 7,008ft Width 98ft Elevation 2,140ft Surface Asphalt Heading 160
Runway 35 Length 7,008ft Width 98ft Elevation 2,140ft Surface Asphalt Heading 340

Airport Frequencies

Type APP/DEP Frequency 124.650 Mhz
Type APP/DEP Frequency 125.800 Mhz
Type APP/DEP Frequency 132.625 Mhz
Type ATIS Frequency 120.200 Mhz
Type D Frequency 124.650 Mhz
Type D Frequency 125.800 Mhz
Type D Frequency 132.625 Mhz
Type FSS Frequency 122.300 Mhz
Type Ground Frequency 121.900 Mhz
Type Tower Frequency 121.100 Mhz
Type UC Frequency 122.950 Mhz
Type CTR Frequency 132.625 Mhz
Type FSS Frequency 122.300 Mhz
Type UC Frequency 122.950 Mhz

Airport Navaids

Type NDB Ident BRA Frequency 379 Khz
Type NDB Ident IM Frequency 357 Khz
Type VORTAC Ident SUG Frequency 112200 Khz